Olean, NY

2:11 AM EDT on June 23, 2017 (GMT -0400)
Cattaraugus County-Olean

Weather History for KOLE - October, 2012

Change the Weather History Date:

Sunday, October 14, 2012

  Actual Average (KBFD) Record (KBFD)
Temperature  
Mean Temperature 56 °F -  
Max Temperature 69 °F 58 °F 79 °F (1975)
Min Temperature 44 °F 37 °F 20 °F (1993)
Degree Days  
Heating Degree Days 8    
Growing Degree Days 6 (Base 50)    
Moisture  
Dew Point 50 °F    
Average Humidity 75    
Maximum Humidity 94    
Minimum Humidity 56    
Precipitation  
Precipitation 0.00 in - - ()
Sea Level Pressure  
Sea Level Pressure 29.91 in    
Wind  
Wind Speed 10 mph ()    
Max Wind Speed 18 mph    
Max Gust Speed 29 mph    
Visibility 10.0 miles    
Events Rain    
Averages and records for this station are not official NWS values.
T = Trace of Precipitation, MM = Missing Value Source: Averaged Metar Reports

Daily Weather History Graph

Daily Weather History Graph

Search for Another Location

Airport or City:

Trip Planner

Search our weather history database for the weather conditions in past years. The results will help you decide how hot, cold, wet, or windy it might be!

Date:

Astronomy

Oct. 14, 2012 Rise Set
Actual Time 7:25 AM EDT 6:32 PM EDT
Civil Twilight 6:57 AM EDT 7:00 PM EDT
Nautical Twilight 6:24 AM EDT 7:33 PM EDT
Astronomical Twilight 5:52 AM EDT 8:05 PM EDT
Moon 6:22 AM EDT (10/14) 5:50 PM EDT (10/14)
Length of Visible Light 12h 03m
Length of Day
11h 06m
Waning Crescent, 1% of the Moon is Illuminated
Oct 14
Waning Crescent
Oct 15
New
Oct 21
First Quarter
Oct 29
Full
Nov 6
Last Quarter

Hourly Weather History & Observations

Time (EDT) Temp. Windchill Dew Point Humidity Pressure Visibility Wind Dir Wind Speed Gust Speed Precip Events Conditions
12:35 AM 44.6 °F 38.4 °F 37.4 °F 76% 30.03 in 10.0 mi SSW 12.7 mph 18.4 mph N/A   Drizzle
1:15 AM 44.6 °F 38.8 °F 37.4 °F 76% 30.02 in 10.0 mi SSW 11.5 mph 16.1 mph N/A Rain Rain
1:35 AM 44.6 °F 39.2 °F 41.0 °F 87% 30.02 in 7.0 mi SSW 10.4 mph - N/A Rain Rain
1:55 AM 44.6 °F 39.7 °F 42.8 °F 93% 30.03 in 10.0 mi SW 9.2 mph - N/A Rain Light Rain
2:15 AM 44.6 °F 40.2 °F 42.8 °F 93% 30.02 in 10.0 mi SW 8.1 mph 17.3 mph N/A   Drizzle
2:35 AM 44.6 °F 38.8 °F 42.8 °F 93% 30.02 in 10.0 mi SSW 11.5 mph 17.3 mph N/A Rain Rain
2:55 AM 46.4 °F 40.4 °F 44.6 °F 93% 30.01 in 10.0 mi SSW 13.8 mph 18.4 mph N/A   Overcast
3:35 AM 46.4 °F 41.5 °F 44.6 °F 93% 30.00 in 10.0 mi SSW 10.4 mph - N/A   Overcast
3:55 AM 46.4 °F 42.4 °F 44.6 °F 93% 30.00 in 10.0 mi SSW 8.1 mph - N/A   Overcast
4:15 AM 46.4 °F 42.4 °F 44.6 °F 93% 29.99 in 10.0 mi SSW 8.1 mph - N/A   Overcast
4:35 AM 48.2 °F - 44.6 °F 87% 29.99 in 10.0 mi SSW 9.2 mph - N/A   Mostly Cloudy
4:55 AM 50.0 °F - 46.4 °F 87% 29.99 in 10.0 mi SSW 8.1 mph - N/A   Overcast
5:15 AM 50.0 °F - 48.2 °F 94% 29.99 in 10.0 mi SW 9.2 mph 16.1 mph N/A   Overcast
5:35 AM 51.8 °F - 48.2 °F 88% 29.99 in 10.0 mi SSW 12.7 mph 18.4 mph N/A   Overcast
5:55 AM 51.8 °F - 48.2 °F 88% 30.00 in 10.0 mi SSW 9.2 mph - N/A   Overcast
6:15 AM 51.8 °F - 50.0 °F 94% 30.00 in 10.0 mi SW 9.2 mph - N/A   Overcast
6:35 AM 51.8 °F - 48.2 °F 88% 30.00 in 10.0 mi SW 5.8 mph - N/A   Overcast
6:55 AM 51.8 °F - 48.2 °F 88% 30.00 in 10.0 mi SW 8.1 mph - N/A   Overcast
7:15 AM 51.8 °F - 48.2 °F 88% 30.01 in 10.0 mi SW 6.9 mph - N/A   Overcast
7:35 AM 53.6 °F - 50.0 °F 88% 30.01 in 10.0 mi SW 5.8 mph - N/A   Overcast
7:55 AM 53.6 °F - 50.0 °F 88% 30.01 in 10.0 mi SW 6.9 mph - N/A   Overcast
8:15 AM 53.6 °F - 50.0 °F 88% 30.01 in 10.0 mi SW 6.9 mph - N/A   Overcast
8:35 AM 53.6 °F - 50.0 °F 88% 30.02 in 10.0 mi SSW 10.4 mph - N/A   Overcast
8:55 AM 55.4 °F - 50.0 °F 82% 30.02 in 10.0 mi SSW 10.4 mph - N/A   Overcast
9:35 AM 57.2 °F - 51.8 °F 82% 30.01 in 10.0 mi SSW 9.2 mph 18.4 mph N/A   Overcast
9:55 AM 59.0 °F - 51.8 °F 77% 30.01 in 10.0 mi SSW 9.2 mph 18.4 mph N/A   Overcast
10:15 AM 59.0 °F - 51.8 °F 77% 30.01 in 10.0 mi SSW 11.5 mph 16.1 mph N/A   Overcast
10:35 AM 59.0 °F - 53.6 °F 82% 30.00 in 10.0 mi SW 4.6 mph - N/A   Mostly Cloudy
10:55 AM 60.8 °F - 53.6 °F 77% 29.99 in 10.0 mi SW 6.9 mph - N/A   Mostly Cloudy
11:15 AM 60.8 °F - 53.6 °F 77% 29.99 in 10.0 mi SW 6.9 mph - N/A   Mostly Cloudy
11:35 AM 62.6 °F - 55.4 °F 77% 29.98 in 10.0 mi SSW 9.2 mph 18.4 mph N/A   Mostly Cloudy
11:55 AM 62.6 °F - 53.6 °F 72% 29.97 in 10.0 mi SSW 10.4 mph 16.1 mph N/A   Overcast
12:15 PM 62.6 °F - 55.4 °F 77% 29.97 in 10.0 mi SSW 10.4 mph 18.4 mph N/A   Overcast
12:35 PM 64.4 °F - 55.4 °F 73% 29.96 in 10.0 mi South 11.5 mph 18.4 mph N/A   Mostly Cloudy
12:55 PM 64.4 °F - 55.4 °F 73% 29.94 in 10.0 mi SSW 10.4 mph 19.6 mph N/A   Mostly Cloudy
1:15 PM 64.4 °F - 55.4 °F 73% 29.92 in 10.0 mi South 13.8 mph 20.7 mph N/A   Scattered Clouds
1:55 PM 66.2 °F - 55.4 °F 68% 29.91 in 10.0 mi SSW 13.8 mph 18.4 mph N/A   Scattered Clouds
2:35 PM 68.0 °F - 53.6 °F 60% 29.88 in 10.0 mi SSW 15.0 mph 26.5 mph N/A   Scattered Clouds
2:55 PM 68.0 °F - 53.6 °F 60% 29.88 in 10.0 mi SW 16.1 mph 25.3 mph N/A   Scattered Clouds
3:15 PM 69.8 °F - 53.6 °F 56% 29.86 in 10.0 mi SSW 15.0 mph 28.8 mph N/A   Mostly Cloudy
3:35 PM 68.0 °F - 53.6 °F 60% 29.86 in 10.0 mi SW 12.7 mph 25.3 mph N/A   Scattered Clouds
3:55 PM 69.8 °F - 53.6 °F 56% 29.85 in 10.0 mi SW 15.0 mph 25.3 mph N/A   Scattered Clouds
4:15 PM 68.0 °F - 53.6 °F 60% 29.84 in 10.0 mi SSW 15.0 mph 21.9 mph N/A   Scattered Clouds
4:35 PM 68.0 °F - 53.6 °F 60% 29.82 in 10.0 mi South 13.8 mph 25.3 mph N/A   Clear
5:15 PM 66.2 °F - 53.6 °F 64% 29.81 in 10.0 mi SSW 12.7 mph 20.7 mph N/A   Clear
5:35 PM 68.0 °F - 51.8 °F 56% 29.81 in 10.0 mi SSW 18.4 mph 28.8 mph N/A   Clear
5:55 PM 66.2 °F - 51.8 °F 60% 29.81 in 10.0 mi SSW 12.7 mph 23.0 mph N/A   Clear
6:35 PM 66.2 °F - 51.8 °F 60% 29.81 in 10.0 mi SSW 13.8 mph 20.7 mph N/A   Mostly Cloudy
6:55 PM 66.2 °F - 51.8 °F 60% 29.80 in 10.0 mi SSW 11.5 mph 20.7 mph N/A   Overcast
7:15 PM 66.2 °F - 51.8 °F 60% 29.80 in 10.0 mi SSW 10.4 mph 23.0 mph N/A   Overcast
7:35 PM 66.2 °F - 51.8 °F 60% 29.79 in 10.0 mi SSW 9.2 mph 21.9 mph N/A   Overcast
7:55 PM 66.2 °F - 51.8 °F 60% 29.78 in 10.0 mi SSW 12.7 mph 20.7 mph N/A   Mostly Cloudy
8:15 PM 66.2 °F - 51.8 °F 60% 29.77 in 10.0 mi SSW 13.8 mph 20.7 mph N/A   Mostly Cloudy
8:55 PM 66.2 °F - 51.8 °F 60% 29.76 in 10.0 mi South 11.5 mph 19.6 mph N/A   Overcast
9:15 PM 64.4 °F - 51.8 °F 64% 29.75 in 10.0 mi South 10.4 mph 19.6 mph N/A   Overcast
9:35 PM 62.6 °F - 51.8 °F 68% 29.75 in 10.0 mi South 10.4 mph 26.5 mph N/A   Overcast
9:55 PM 62.6 °F - 51.8 °F 68% 29.75 in 10.0 mi South 10.4 mph 20.7 mph N/A   Overcast
10:15 PM 62.6 °F - 51.8 °F 68% 29.74 in 10.0 mi South 13.8 mph 19.6 mph N/A   Mostly Cloudy
10:35 PM 62.6 °F - 50.0 °F 63% 29.73 in 10.0 mi South 12.7 mph 24.2 mph N/A   Overcast
10:55 PM 60.8 °F - 50.0 °F 68% 29.72 in 10.0 mi SSW 16.1 mph 24.2 mph N/A   Mostly Cloudy
11:15 PM 60.8 °F - 50.0 °F 68% 29.71 in 10.0 mi SSW 9.2 mph 20.7 mph N/A   Overcast
11:35 PM 60.8 °F - 50.0 °F 68% 29.71 in 10.0 mi South 15.0 mph 24.2 mph N/A   Overcast
11:55 PM 60.8 °F - 50.0 °F 68% 29.69 in 10.0 mi SSW 11.5 mph 20.7 mph N/A   Overcast